CFG47T EDDN-HEGN

Flight info

Callsign CFG47T
Flight time N/A
Altitude 39000
Route RODIS1C RODIS L604 LAMSI DCT LURID DCT ENFAR DCT BITLA UN132 KEA DCT PAXIS Y707 OBRAN L321 REXUM M872 BOPOB DCT HGD
Aircraft A339/H-SADE1E2E3GHIJ3J5M1P2RWXY/LB2D1

Departure

Time 2026-04-29 18:12
Airport Nuremberg Airport (EDDN)

Arrival

Time N/A
Airport Hurghada International Airport (HEGN)
Time Latitude Longitude Altitude Speed Heading
2026-04-29 17:57 49.49466 11.08310 1033 ft 0 kts 188°
2026-04-29 18:04 49.49472 11.08311 1033 ft 3 kts 188°
2026-04-29 18:04 49.49492 11.08316 1021 ft 3 kts 188°
2026-04-29 18:04 49.49514 11.08320 1034 ft 3 kts 210°
2026-04-29 18:04 49.49529 11.08338 1035 ft 1 kts 262°
2026-04-29 18:05 49.49531 11.08345 1036 ft 0 kts 275°
2026-04-29 18:06 49.49532 11.08337 1035 ft 6 kts 275°
2026-04-29 18:06 49.49542 11.08209 1032 ft 15 kts 278°
2026-04-29 18:07 49.49557 11.08048 1033 ft 16 kts 279°
2026-04-29 18:07 49.49572 11.07904 1031 ft 3 kts 279°
2026-04-29 18:07 49.49584 11.07852 1030 ft 9 kts 298°
2026-04-29 18:07 49.49656 11.07768 1030 ft 16 kts 326°
2026-04-29 18:08 49.49699 11.07576 1029 ft 23 kts 278°
2026-04-29 18:08 49.49723 11.07324 1029 ft 24 kts 279°
2026-04-29 18:08 49.49749 11.07062 1025 ft 25 kts 279°
2026-04-29 18:08 49.49776 11.06795 1023 ft 26 kts 278°
2026-04-29 18:09 49.49802 11.06526 1022 ft 25 kts 278°
2026-04-29 18:09 49.49827 11.06278 1024 ft 24 kts 278°
2026-04-29 18:09 49.49848 11.06065 1024 ft 12 kts 279°
2026-04-29 18:09 49.49898 11.05971 1024 ft 11 kts 329°
2026-04-29 18:10 49.49920 11.05956 1027 ft 0 kts 337°
2026-04-29 18:11 49.49922 11.05955 1027 ft 4 kts 337°
2026-04-29 18:11 49.49999 11.05934 1030 ft 14 kts
2026-04-29 18:11 49.50043 11.06041 1031 ft 12 kts 89°
2026-04-29 18:11 49.50021 11.06296 1027 ft 57 kts 98°
2026-04-29 18:12 49.49921 11.07321 1030 ft 136 kts 99°
2026-04-29 18:12 49.49766 11.09019 1310 ft 173 kts 94°
2026-04-29 18:12 49.49576 11.10822 2298 ft 165 kts 97°
2026-04-29 18:12 49.49383 11.12521 3172 ft 164 kts 97°
2026-04-29 18:13 49.49186 11.14328 3669 ft 181 kts 97°
2026-04-29 18:13 49.48980 11.16351 4118 ft 201 kts 97°
2026-04-29 18:13 49.48768 11.18564 4480 ft 222 kts 97°
2026-04-29 18:13 49.48538 11.21020 4827 ft 242 kts 97°
2026-04-29 18:14 49.48295 11.23627 5404 ft 248 kts 97°
2026-04-29 18:14 49.48108 11.26293 6059 ft 251 kts 91°
2026-04-29 18:14 49.48095 11.28989 6638 ft 258 kts 89°
2026-04-29 18:14 49.48086 11.31780 7308 ft 261 kts 88°
2026-04-29 18:15 49.48071 11.34603 7917 ft 266 kts 88°
2026-04-29 18:15 49.48051 11.37462 8637 ft 268 kts 88°
2026-04-29 18:15 49.48029 11.40327 9251 ft 274 kts 88°
2026-04-29 18:15 49.48003 11.43261 9959 ft 276 kts 88°
2026-04-29 18:16 49.47975 11.46240 10535 ft 283 kts 88°
2026-04-29 18:16 49.47949 11.49383 10721 ft 303 kts 88°
2026-04-29 18:16 49.47923 11.52751 10891 ft 322 kts 88°
2026-04-29 18:16 49.47890 11.56219 11328 ft 331 kts 88°
2026-04-29 18:17 49.47850 11.59778 11933 ft 334 kts 88°
2026-04-29 18:17 49.47813 11.63369 12503 ft 338 kts 88°
2026-04-29 18:17 49.47773 11.67010 13107 ft 341 kts 88°
2026-04-29 18:17 49.47731 11.70679 13681 ft 345 kts 88°
2026-04-29 18:18 49.47687 11.74394 14258 ft 348 kts 88°
2026-04-29 18:18 49.47643 11.78143 14790 ft 351 kts 88°
2026-04-29 18:18 49.47597 11.81864 15318 ft 354 kts 87°
2026-04-29 18:18 49.47550 11.85675 15866 ft 356 kts 87°
2026-04-29 18:19 49.47505 11.89504 16397 ft 359 kts 87°
2026-04-29 18:19 49.47369 11.93375 16902 ft 365 kts 92°
2026-04-29 18:19 49.46887 11.97241 17441 ft 371 kts 101°
2026-04-29 18:19 49.46068 12.01003 17914 ft 377 kts 106°
2026-04-29 18:20 49.45157 12.04798 18410 ft 380 kts 105°
2026-04-29 18:20 49.44251 12.08642 18884 ft 383 kts 105°
2026-04-29 18:20 49.43346 12.12522 19355 ft 385 kts 105°
2026-04-29 18:20 49.42442 12.16402 19827 ft 387 kts 105°
2026-04-29 18:21 49.41532 12.20310 20314 ft 390 kts 105°
2026-04-29 18:21 49.40624 12.24195 20780 ft 392 kts 105°
2026-04-29 18:21 49.39695 12.28160 21267 ft 395 kts 105°
2026-04-29 18:21 49.38759 12.32150 21746 ft 398 kts 105°
2026-04-29 18:22 49.37816 12.36163 22236 ft 400 kts 105°
2026-04-29 18:22 49.36877 12.40154 22703 ft 403 kts 105°
2026-04-29 18:22 49.35919 12.44214 23197 ft 406 kts 105°
2026-04-29 18:22 49.34697 12.48176 23624 ft 416 kts 117°
2026-04-29 18:23 49.32873 12.51689 24087 ft 424 kts 128°
2026-04-29 18:23 49.30841 12.55024 24512 ft 427 kts 129°
2026-04-29 18:23 49.28801 12.58284 24930 ft 429 kts 129°
2026-04-29 18:23 49.26723 12.61590 25352 ft 431 kts 129°
2026-04-29 18:24 49.24632 12.64924 25745 ft 434 kts 129°
2026-04-29 18:24 49.22533 12.68276 26164 ft 436 kts 129°
2026-04-29 18:24 49.21142 12.70501 26420 ft 438 kts 129°
2026-04-29 18:24 49.18987 12.73828 26803 ft 443 kts 134°
2026-04-29 18:25 49.15850 12.77891 27262 ft 447 kts 136°
2026-04-29 18:25 49.14235 12.79979 27531 ft 449 kts 136°
2026-04-29 18:25 49.11868 12.83022 27904 ft 451 kts 136°
2026-04-29 18:25 49.09447 12.86114 28292 ft 453 kts 136°
2026-04-29 18:26 49.07007 12.89214 28668 ft 456 kts 136°
2026-04-29 18:26 49.04580 12.92286 29037 ft 458 kts 136°
2026-04-29 18:26 49.02114 12.95401 29278 ft 461 kts 136°
2026-04-29 18:26 48.99631 12.98534 29676 ft 463 kts 137°
2026-04-29 18:27 48.97170 13.01634 30040 ft 465 kts 137°
2026-04-29 18:27 48.94669 13.04779 30396 ft 467 kts 137°
2026-04-29 18:27 48.92154 13.07937 30689 ft 470 kts 137°
2026-04-29 18:27 48.89617 13.11117 30973 ft 473 kts 137°
2026-04-29 18:28 48.87070 13.14307 31227 ft 476 kts 137°
2026-04-29 18:28 48.81935 13.20718 31282 ft 476 kts 138°
2026-04-29 18:29 48.76835 13.27066 31277 ft 476 kts 138°
2026-04-29 18:29 48.71696 13.33449 31281 ft 477 kts 138°
2026-04-29 18:30 48.66556 13.39813 31262 ft 477 kts 139°
2026-04-29 18:30 48.61437 13.46135 31278 ft 477 kts 139°
2026-04-29 18:31 48.56275 13.52491 31283 ft 478 kts 139°
2026-04-29 18:31 48.51135 13.58803 31258 ft 478 kts 139°
2026-04-29 18:32 48.45953 13.65150 31259 ft 478 kts 139°
2026-04-29 18:32 48.38206 13.74608 31267 ft 480 kts 140°
2026-04-29 18:33 48.32997 13.80945 31502 ft 483 kts 140°
2026-04-29 18:33 48.30372 13.84131 31837 ft 485 kts 140°
2026-04-29 18:33 48.27762 13.87296 32112 ft 488 kts 140°
2026-04-29 18:34 48.25108 13.90509 32392 ft 491 kts 140°
2026-04-29 18:34 48.23309 13.92685 32561 ft 493 kts 140°
2026-04-29 18:34 48.19752 13.96981 32886 ft 496 kts 140°
2026-04-29 18:34 48.17050 14.00239 33110 ft 498 kts 141°
2026-04-29 18:35 48.14369 14.03467 33295 ft 500 kts 141°
2026-04-29 18:35 48.11643 14.06744 33484 ft 502 kts 141°
2026-04-29 18:35 48.08900 14.10037 33636 ft 504 kts 141°
2026-04-29 18:35 48.06153 14.13331 33792 ft 506 kts 141°
2026-04-29 18:36 48.03398 14.16629 33972 ft 506 kts 141°
2026-04-29 18:36 48.00675 14.19884 34162 ft 506 kts 142°
2026-04-29 18:36 47.97922 14.23171 34342 ft 507 kts 142°
2026-04-29 18:36 47.95168 14.26455 34497 ft 507 kts 142°
2026-04-29 18:37 47.92401 14.29747 34665 ft 508 kts 142°
2026-04-29 18:37 47.89635 14.33036 34831 ft 508 kts 142°
2026-04-29 18:37 47.86865 14.36324 34996 ft 508 kts 142°
2026-04-29 18:37 47.84123 14.39574 35151 ft 509 kts 142°
2026-04-29 18:38 47.81351 14.42855 35262 ft 510 kts 142°
2026-04-29 18:38 47.78566 14.46147 35394 ft 510 kts 142°
2026-04-29 18:38 47.75764 14.49454 35560 ft 510 kts 142°
2026-04-29 18:38 47.73016 14.52693 35709 ft 510 kts 142°
2026-04-29 18:39 47.70220 14.55985 35839 ft 511 kts 142°
2026-04-29 18:39 47.67432 14.59263 35990 ft 511 kts 143°
2026-04-29 18:39 47.64670 14.62505 36141 ft 511 kts 143°
2026-04-29 18:39 47.61878 14.65778 36294 ft 511 kts 143°
2026-04-29 18:40 47.59077 14.69056 36437 ft 511 kts 143°
2026-04-29 18:40 47.56279 14.72325 36610 ft 512 kts 143°
2026-04-29 18:40 47.53479 14.75595 36791 ft 511 kts 143°
2026-04-29 18:40 47.50685 14.78852 36955 ft 511 kts 143°
2026-04-29 18:41 47.42293 14.88603 37446 ft 512 kts 143°
2026-04-29 18:41 47.39527 14.91809 37691 ft 511 kts 143°
2026-04-29 18:42 47.33902 14.98315 37947 ft 512 kts 143°
2026-04-29 18:42 47.31094 15.01556 38105 ft 513 kts 143°
2026-04-29 18:42 47.28284 15.04796 38230 ft 513 kts 143°
2026-04-29 18:43 47.25509 15.07991 38420 ft 512 kts 143°
2026-04-29 18:43 47.22697 15.11223 38597 ft 512 kts 143°
2026-04-29 18:43 47.19872 15.14464 38739 ft 513 kts 143°
2026-04-29 18:43 47.17051 15.17697 38911 ft 513 kts 143°
2026-04-29 18:44 47.14231 15.20924 39015 ft 513 kts 143°
2026-04-29 18:44 47.11451 15.24103 39156 ft 512 kts 143°
2026-04-29 18:44 47.05809 15.30539 39238 ft 512 kts 143°
2026-04-29 18:45 47.00213 15.36905 39237 ft 511 kts 144°
2026-04-29 18:45 46.94572 15.43306 39237 ft 511 kts 144°
2026-04-29 18:46 46.88967 15.49646 39234 ft 511 kts 144°
2026-04-29 18:46 46.83330 15.56007 39241 ft 510 kts 144°
2026-04-29 18:47 46.77708 15.62333 39241 ft 510 kts 144°
2026-04-29 18:47 46.72116 15.68609 39249 ft 510 kts 144°
2026-04-29 18:48 46.66465 15.74933 39249 ft 510 kts 144°
2026-04-29 18:48 46.60864 15.81185 39258 ft 509 kts 144°
2026-04-29 18:49 46.55222 15.87466 39249 ft 509 kts 144°
2026-04-29 18:49 46.49585 15.93724 39253 ft 509 kts 144°
2026-04-29 18:50 46.43978 15.99934 39253 ft 509 kts 145°
2026-04-29 18:50 46.38321 16.06181 39239 ft 509 kts 145°
2026-04-29 18:51 46.32706 16.12365 39244 ft 509 kts 145°
2026-04-29 18:51 46.27050 16.18577 39241 ft 509 kts 145°
2026-04-29 18:52 46.21418 16.24750 39250 ft 509 kts 145°
2026-04-29 18:52 46.15756 16.30938 39247 ft 509 kts 146°
2026-04-29 18:53 46.10092 16.37110 39241 ft 509 kts 146°
2026-04-29 18:53 46.04465 16.43226 39238 ft 509 kts 146°
2026-04-29 18:54 45.98785 16.49384 39235 ft 510 kts 146°
2026-04-29 18:54 45.93148 16.55479 39232 ft 510 kts 146°
2026-04-29 18:55 45.87459 16.61613 39235 ft 510 kts 146°
2026-04-29 18:55 45.81760 16.67743 39234 ft 511 kts 146°
2026-04-29 18:56 45.76092 16.73825 39232 ft 512 kts 146°
2026-04-29 18:56 45.70370 16.79948 39232 ft 512 kts 146°
2026-04-29 18:57 45.64678 16.86022 39236 ft 513 kts 146°
2026-04-29 18:57 45.58950 16.92119 39237 ft 513 kts 146°
2026-04-29 18:58 45.53211 16.98212 39241 ft 513 kts 147°
2026-04-29 18:58 45.47509 17.04248 39231 ft 513 kts 147°
2026-04-29 18:59 45.41765 17.10315 39233 ft 513 kts 147°
2026-04-29 18:59 45.36047 17.16339 39228 ft 513 kts 147°
2026-04-29 19:00 45.30298 17.22379 39235 ft 513 kts 147°
2026-04-29 19:00 45.24530 17.28430 39230 ft 514 kts 147°
2026-04-29 19:01 45.18807 17.34421 39230 ft 514 kts 147°
2026-04-29 19:01 45.13027 17.40419 39237 ft 513 kts 148°
2026-04-29 19:02 45.08144 17.45203 39236 ft 512 kts 148°
2026-04-29 19:02 45.01363 17.51986 39238 ft 512 kts 148°
2026-04-29 19:03 44.95524 17.57802 39237 ft 512 kts 148°
2026-04-29 19:03 44.89726 17.63544 39236 ft 512 kts 148°
2026-04-29 19:04 44.83872 17.69320 39231 ft 512 kts 149°
2026-04-29 19:04 44.78031 17.75069 39232 ft 511 kts 149°
2026-04-29 19:05 44.72229 17.80763 39227 ft 511 kts 149°
2026-04-29 19:05 44.66406 17.86465 39224 ft 511 kts 149°
2026-04-29 19:06 44.60569 17.92167 39226 ft 510 kts 149°
2026-04-29 19:07 44.51812 18.00694 39227 ft 510 kts 149°
2026-04-29 19:07 44.46653 18.05701 39222 ft 509 kts 149°